Location: Blue Mountain Vista Observatory
(40.6992°N, 75.9422°W)
Time: 01:42:35
(UTC-04:00)

Amateur Radio Satellites - All Passes

Search period start: 20 April 2014 01:12
Search period end: 21 April 2014 01:12
Location: Blue Mountain Vista Observatory, 40.6992°N, 75.9422°W

Satellite Date Start Highest point End Downlink Frequencies (MHz)
Time Altitude Azimuth
SO-50 20 Apr 01:22:58 01:27:20 41° 244° (WSW) 01:31:45 436.795 FM
Oscar 10/S400 20 Apr 01:48:14 02:03:06 22° 130° (SE) 02:31:19 145.825 - 145.975 CW/USB, Beacon 145.810 USB
UOSAT-12 20 Apr 02:03:24 02:07:43 34° 49° (NE) 02:12:00 437.025 FM, 437.400 FM
Sapphire 20 Apr 02:06:35 02:11:21 31° 309° (NW) 02:16:10 437.095 MHz 1200 baud AX-25 AFSK
AO-27 20 Apr 02:10:46 02:14:24 19° 93° (E) 02:18:00 436.795 MHz FM
ITAMSAT 1 20 Apr 02:20:59 02:25:05 23° 94° (E) 02:29:09 435.822 SSB
AO-Echo 20 Apr 02:23:54 02:27:11 18° 92° (E) 02:30:24 ?
Oscar 19 20 Apr 02:24:08 02:29:11 48° 99° (E) 02:34:11 437.125 CW, 437.150 USB
KITSAT 1 20 Apr 02:24:10 02:31:32 40° 109° (ESE) 02:38:56 435.175 FM
Oscar 16 20 Apr 02:32:25 02:37:36 63° 101° (ESE) 02:42:44 437.025 USB, Beacon 2401.1428
OPAL 20 Apr 02:39:47 02:44:45 68° 71° (ENE) 02:49:50 ?
PCSat 20 Apr 02:53:50 02:56:55 15° 319° (NW) 03:00:00 145.825 MHz
TMSAT-1 20 Apr 02:56:13 02:56:47 10° 88° (E) 02:57:22 436.925 FM
Uribyol 2 20 Apr 03:08:31 03:13:42 71° 102° (ESE) 03:18:52 436.500 FM
UOSAT-12 20 Apr 03:43:43 03:47:47 29° 247° (WSW) 03:51:49 437.025 FM, 437.400 FM
Gurwin Techsat 1B 20 Apr 03:44:20 03:49:27 46° 99° (E) 03:54:31 435.225 FM
AO-27 20 Apr 03:49:11 03:54:11 51° 289° (WNW) 03:59:11 436.795 MHz FM
ITAMSAT 1 20 Apr 03:59:53 04:04:43 42° 290° (WNW) 04:09:33 435.822 SSB
AO-Echo 20 Apr 04:01:40 04:06:12 44° 289° (WNW) 04:10:39 ?
Oscar 19 20 Apr 04:04:18 04:08:10 22° 296° (WNW) 04:12:01 437.125 CW, 437.150 USB
Oscar 16 20 Apr 04:13:08 04:16:25 17° 298° (WNW) 04:19:42 437.025 USB, Beacon 2401.1428
KITSAT 1 20 Apr 04:18:59 04:26:47 49° 309° (NW) 04:34:38 435.175 FM
Uosat F 20 Apr 04:20:47 04:24:52 25° 95° (E) 04:28:55 435.120 FM
OPAL 20 Apr 04:21:37 04:24:07 14° 268° (W) 04:26:40 ?
TMSAT-1 20 Apr 04:32:05 04:37:24 90° 282° (WNW) 04:42:42 436.925 FM
Uribyol 2 20 Apr 04:49:40 04:52:35 15° 299° (WNW) 04:55:29 436.500 FM
AO-7 20 Apr 04:52:02 04:59:34 37° 98° (E) 05:07:04 29.400 - 29.500 MHz
JAS-1B 20 Apr 04:53:31 04:59:09 62° 102° (ESE) 05:05:02 435.800 - 435.900 CW/SSB
AO-40 20 Apr 05:02:32 10:25:11 37° 180° (S) 17:10:44 Beacon 2401.320
STRAND 1 20 Apr 05:22:22 05:24:15 12° 59° (ENE) 05:26:09 ?
Gurwin Techsat 1B 20 Apr 05:25:00 05:29:06 23° 296° (WNW) 05:33:11 435.225 FM
RS-15 20 Apr 05:35:15 05:43:43 25° 102° (ESE) 05:51:56 29.354 - 29.394 USB, Beacon 29.352 USB
Uosat F 20 Apr 05:59:09 06:03:43 37° 291° (WNW) 06:08:16 435.120 FM
TMSAT-1 20 Apr 06:14:29 06:16:32 12° 301° (WNW) 06:18:35 436.925 FM
KITSAT 1 20 Apr 06:19:55 06:24:28 16° 334° (NNW) 06:29:03 435.175 FM
MaSat-1 20 Apr 06:37:54 06:40:22 23° 61° (ENE) 06:43:11 437.345 MHz
Hamsat 20 Apr 06:43:24 06:47:16 30° 96° (E) 06:51:07 145.90 MHz
AO-7 20 Apr 06:44:35 06:52:30 51° 296° (WNW) 07:00:26 29.400 - 29.500 MHz
JAS-1B 20 Apr 06:45:46 06:49:21 17° 300° (WNW) 06:52:59 435.800 - 435.900 CW/SSB
STRAND 1 20 Apr 06:57:34 07:02:42 88° 256° (WSW) 07:07:50 ?
JAS-2 20 Apr 07:33:21 07:38:17 34° 98° (E) 07:43:39 435.800 - 435.900 CW/SSB, 435.910 FM
SO-67 20 Apr 07:41:49 07:44:37 22° 95° (E) 07:47:24 435.3500 MHz FM
RS-15 20 Apr 07:43:23 07:54:46 83° 302° (WNW) 08:05:49 29.354 - 29.394 USB, Beacon 29.352 USB
PCSat 20 Apr 08:13:52 08:16:35 14° 40° (NE) 08:19:17 145.825 MHz
MaSat-1 20 Apr 08:16:37 08:18:41 16° 250° (WSW) 08:20:58 437.345 MHz
Hamsat 20 Apr 08:19:38 08:23:06 24° 292° (WNW) 08:26:34 145.90 MHz
KITSAT 1 20 Apr 08:23:24 08:24:17 10° 6° (N) 08:25:11 435.175 FM
HO-68 20 Apr 08:36:54 08:38:55 11° 87° (E) 08:40:55 435.675 MHz FM
AO-7 20 Apr 08:41:07 08:43:20 11° 317° (NW) 08:45:34 29.400 - 29.500 MHz
Sapphire 20 Apr 09:11:02 09:15:51 31° 51° (NE) 09:20:37 437.095 MHz 1200 baud AX-25 AFSK
SO-67 20 Apr 09:15:02 09:17:39 20° 290° (WNW) 09:20:16 435.3500 MHz FM
JAS-2 20 Apr 09:18:38 09:23:21 32° 292° (WNW) 09:28:26 435.800 - 435.900 CW/SSB, 435.910 FM
PANSAT 20 Apr 09:54:24 09:56:15 13° 176° (S) 09:58:06 not established
PCSat 20 Apr 09:55:32 10:00:58 74° 60° (ENE) 10:06:22 145.825 MHz
Oscar 11 20 Apr 09:57:50 10:00:53 18° 93° (E) 10:03:56 145.825 FM, Beacon 2401.500 USB
RS-15 20 Apr 09:59:39 10:08:57 29° 329° (NNW) 10:18:10 29.354 - 29.394 USB, Beacon 29.352 USB
KITSAT 1 20 Apr 10:17:22 10:23:31 23° 36° (NE) 10:29:37 435.175 FM
HO-68 20 Apr 10:20:31 10:27:44 74° 104° (ESE) 10:34:54 435.675 MHz FM
Sapphire 20 Apr 10:54:20 10:59:19 39° 249° (WSW) 11:04:17 437.095 MHz 1200 baud AX-25 AFSK
Saudisat 1A 20 Apr 11:07:00 11:11:24 63° 119° (ESE) 11:15:50 436.775 MHz
FUNcube-1 20 Apr 11:25:30 11:29:42 54° 100° (E) 11:33:58 145.950 - 145.970 MHz USB
Oscar 11 20 Apr 11:33:10 11:37:13 38° 289° (WNW) 11:41:15 145.825 FM, Beacon 2401.500 USB
PANSAT 20 Apr 11:34:27 11:35:43 11° 189° (S) 11:36:59 not established
PCSat 20 Apr 11:40:49 11:43:42 15° 257° (WSW) 11:46:35 145.825 MHz
HO-68 20 Apr 12:09:26 12:14:43 23° 303° (WNW) 12:20:00 435.675 MHz FM
KITSAT 1 20 Apr 12:12:06 12:20:15 80° 59° (ENE) 12:28:19 435.175 FM
Oscar 16 20 Apr 12:14:09 12:15:43 11° 58° (ENE) 12:17:17 437.025 USB, Beacon 2401.1428
RS-15 20 Apr 12:19:06 12:26:27 19° 5° (N) 12:33:46 29.354 - 29.394 USB, Beacon 29.352 USB
Saudisat 1A 20 Apr 12:48:22 12:51:25 18° 318° (NW) 12:54:29 436.775 MHz
Uribyol 2 20 Apr 12:50:11 12:52:35 13° 60° (ENE) 12:54:59 436.500 FM
FUNcube-1 20 Apr 13:03:31 13:05:42 14° 296° (WNW) 13:07:54 145.950 - 145.970 MHz USB
AO-27 20 Apr 13:28:30 13:32:55 29° 67° (ENE) 13:37:20 436.795 MHz FM
AO-Echo 20 Apr 13:36:04 13:40:22 27° 67° (ENE) 13:44:35 ?
ITAMSAT 1 20 Apr 13:38:39 13:43:18 35° 68° (ENE) 13:47:58 435.822 SSB
Oscar 19 20 Apr 13:40:42 13:45:47 68° 74° (ENE) 13:50:56 437.125 CW, 437.150 USB
Oscar 16 20 Apr 13:49:07 13:54:15 87° 76° (ENE) 13:59:27 437.025 USB, Beacon 2401.1428
AO-7 20 Apr 14:05:57 14:07:39 11° 42° (NE) 14:09:21 29.400 - 29.500 MHz
KITSAT 1 20 Apr 14:09:03 14:14:42 21° 257° (WSW) 14:20:21 435.175 FM
TMSAT-1 20 Apr 14:15:04 14:18:32 18° 62° (ENE) 14:21:59 436.925 FM
Uribyol 2 20 Apr 14:26:12 14:31:22 81° 256° (WSW) 14:36:33 436.500 FM
RS-15 20 Apr 14:33:18 14:43:15 38° 39° (NE) 14:53:19 29.354 - 29.394 USB, Beacon 29.352 USB
OPAL 20 Apr 14:51:02 14:54:37 19° 94° (E) 14:58:11 ?
ISS 20 Apr 15:00:09 15:03:20 43° 138° (SE) 15:06:32 145.800 FM
Gurwin Techsat 1B 20 Apr 15:05:07 15:10:22 70° 74° (ENE) 15:15:40 435.225 FM
AO-27 20 Apr 15:07:37 15:12:18 34° 263° (W) 15:17:01 436.795 MHz FM
AO-Echo 20 Apr 15:14:06 15:18:57 38° 262° (W) 15:23:43 ?
Oscar 10/S400 20 Apr 15:14:24 16:03:47 14° 274° (W) 17:13:36 145.825 - 145.975 CW/USB, Beacon 145.810 USB
ITAMSAT 1 20 Apr 15:18:24 15:22:49 28° 264° (W) 15:27:14 435.822 SSB
Oscar 19 20 Apr 15:23:00 15:25:37 14° 270° (W) 15:28:15 437.125 CW, 437.150 USB
Oscar 16 20 Apr 15:33:34 15:34:16 10° 272° (W) 15:34:57 437.025 USB, Beacon 2401.1428
Uosat F 20 Apr 15:33:43 15:38:13 34° 68° (ENE) 15:42:43 435.120 FM
JAS-1B 20 Apr 15:37:03 15:44:54 58° 71° (ENE) 15:51:28 435.800 - 435.900 CW/SSB
SO-50 20 Apr 15:37:25 15:41:51 70° 120° (ESE) 15:46:21 436.795 FM
AO-7 20 Apr 15:50:37 15:58:26 49° 64° (ENE) 16:06:16 29.400 - 29.500 MHz
TMSAT-1 20 Apr 15:52:43 15:57:56 61° 259° (W) 16:03:12 436.925 FM
OPAL 20 Apr 16:28:42 16:33:48 55° 290° (WNW) 16:38:52 ?
ISS 20 Apr 16:37:15 16:40:10 27° 335° (NNW) 16:43:07 145.800 FM
RS-15 20 Apr 16:45:38 16:56:30 73° 243° (WSW) 17:07:42 29.354 - 29.394 USB, Beacon 29.352 USB
Gurwin Techsat 1B 20 Apr 16:48:06 16:50:50 14° 270° (W) 16:53:36 435.225 FM
Uosat F 20 Apr 17:12:46 17:17:01 27° 264° (W) 17:21:16 435.120 FM
SO-50 20 Apr 17:20:01 17:22:55 17° 319° (NW) 17:25:50 436.795 FM
JAS-1B 20 Apr 17:29:05 17:35:39 27° 264° (W) 17:41:26 435.800 - 435.900 CW/SSB
Hamsat 20 Apr 17:37:17 17:40:28 21° 67° (ENE) 17:43:42 145.90 MHz
AO-7 20 Apr 17:43:49 17:51:19 38° 262° (W) 17:58:53 29.400 - 29.500 MHz
JAS-2 20 Apr 17:48:43 17:51:20 14° 61° (ENE) 17:53:53 435.800 - 435.900 CW/SSB, 435.910 FM
UOSAT-12 20 Apr 17:53:52 17:58:25 90° 306° (NW) 18:03:06 437.025 FM, 437.400 FM
ISS 20 Apr 18:16:05 18:17:46 13° 355° (N) 18:19:28 145.800 FM
RS-15 20 Apr 19:01:33 19:06:49 15° 263° (W) 19:12:11 29.354 - 29.394 USB, Beacon 29.352 USB
HO-68 20 Apr 19:08:39 19:09:14 10° 48° (NE) 19:09:49 435.675 MHz FM
STRAND 1 20 Apr 19:08:54 19:13:27 32° 97° (E) 19:17:57 ?
Hamsat 20 Apr 19:12:31 19:16:16 31° 264° (W) 19:20:05 145.90 MHz
JAS-2 20 Apr 19:30:02 19:35:54 80° 257° (WSW) 19:41:15 435.800 - 435.900 CW/SSB, 435.910 FM
Saudisat 1A 20 Apr 19:34:16 19:38:32 46° 53° (NE) 19:42:44 436.775 MHz
UOSAT-12 20 Apr 19:36:42 19:39:16 15° 321° (NW) 19:41:52 437.025 FM, 437.400 FM
SO-67 20 Apr 19:47:31 19:50:58 61° 260° (W) 19:54:27 435.3500 MHz FM
ISS 20 Apr 19:53:14 19:55:33 17° 16° (NNE) 19:57:52 145.800 FM
MaSat-1 20 Apr 20:42:56 20:43:41 11° 109° (ESE) 20:44:25 437.345 MHz
STRAND 1 20 Apr 20:48:09 20:52:33 30° 293° (WNW) 20:56:57 ?
HO-68 20 Apr 20:48:29 20:55:21 54° 67° (ENE) 21:02:16 435.675 MHz FM
Oscar 11 20 Apr 20:53:37 20:56:04 15° 64° (ENE) 20:58:32 145.825 FM, Beacon 2401.500 USB
Saudisat 1A 20 Apr 21:14:45 21:17:47 18° 249° (WSW) 21:20:47 436.775 MHz
ISS 20 Apr 21:29:27 21:32:48 66° 35° (NE) 21:36:08 145.800 FM
MaSat-1 20 Apr 22:19:37 22:21:54 22° 300° (WNW) 22:24:01 437.345 MHz
FUNcube-1 20 Apr 22:22:06 22:26:03 41° 72° (ENE) 22:29:58 145.950 - 145.970 MHz USB
Oscar 11 20 Apr 22:27:40 22:31:51 50° 260° (W) 22:36:04 145.825 FM, Beacon 2401.500 USB
SO-50 20 Apr 22:31:30 22:32:20 10° 35° (NE) 22:33:10 436.795 FM
HO-68 20 Apr 22:37:20 22:43:19 29° 265° (W) 22:49:22 435.675 MHz FM
ISS 20 Apr 23:07:20 23:09:10 14° 230° (SW) 23:11:00 145.800 FM
Sapphire 20 Apr 23:53:04 23:57:36 28° 108° (ESE) 00:02:10 437.095 MHz 1200 baud AX-25 AFSK
FUNcube-1 21 Apr 00:00:07 00:02:40 16° 268° (W) 00:05:12 145.950 - 145.970 MHz USB
SO-50 21 Apr 00:09:17 00:13:53 58° 54° (NE) 00:18:32 436.795 FM
PCSat 21 Apr 00:36:46 00:42:08 73° 116° (ESE) 00:47:34 145.825 MHz
UOSAT-12 21 Apr 00:45:28 00:47:30 13° 36° (NE) 00:49:32 437.025 FM, 437.400 FM
